FW6949 Weather Reports


Display with metric or nautical units.
time (UTC)temp
F
wind
direction
speed
MPH
gust
MPH
rain 1hr
in
rain 24hr
in
rain mn
in
humidity
%
barometer
mb
20260506134748 59 90 0.0 0.0 0.00 0.00 0.00 81 4240.1
20260506134244 59 92 1.0 2.0 0.00 0.00 0.00 81 4240.0
20260506133741 59 103 0.0 0.0 0.00 0.00 0.00 80 4239.7
20260506133238 58 117 1.0 1.0 0.00 0.00 0.00 80 4239.9
20260506132735 59 108 1.0 1.0 0.00 0.00 0.00 80 4239.8
20260506132232 59 128 1.0 1.0 0.00 0.00 0.00 80 4240.1
20260506131730 59 98 2.0 2.0 0.00 0.00 0.00 79 4240.0
20260506131226 59 128 1.0 1.0 0.00 0.00 0.00 79 4239.8
20260506130723 59 108 1.0 1.0 0.00 0.00 0.00 79 4239.7
20260506130220 59 119 2.0 2.0 0.00 0.00 0.00 78 4239.9
20260506125718 59 141 0.0 1.0 0.00 0.00 0.00 78 4239.6
20260506125215 59 67 2.0 3.0 0.00 0.00 0.00 78 4239.5
20260506124713 60 94 0.0 1.0 0.00 0.00 0.00 78 4239.7
20260506124211 60 133 1.0 1.0 0.00 0.00 0.00 78 4239.5
20260506123708 60 123 1.0 1.0 0.00 0.00 0.00 78 4239.2
20260506123207 59 105 1.0 2.0 0.00 0.00 0.00 79 4239.1
20260506122703 59 65 0.0 0.0 0.00 0.00 0.00 80 4238.8
20260506122201 59 157 1.0 1.0 0.00 0.00 0.00 79 4238.9
20260506121658 59 128 1.0 1.0 0.00 0.00 0.00 80 4239.1
20260506121154 60 126 2.0 2.0 0.00 0.00 0.00 80 4238.7
20260506120652 60 84 1.0 2.0 0.00 0.00 0.00 80 4238.7
20260506120149 60 131 0.0 1.0 0.00 0.00 0.00 80 4238.5
20260506115648 60 122 1.0 1.0 0.00 0.00 0.00 81 4238.3
20260506115146 60 133 0.0 1.0 0.00 0.00 0.00 81 4238.3
20260506114643 60 128 0.0 0.0 0.00 0.00 0.00 81 4238.2
20260506114141 60 140 0.0 0.0 0.00 0.00 0.00 82 4238.2
20260506113639 60 99 1.0 1.0 0.00 0.00 0.00 82 4238.2
20260506113136 60 125 1.0 1.0 0.00 0.00 0.00 82 4237.9
20260506112632 61 123 1.0 1.0 0.00 0.00 0.00 82 4237.9
20260506112130 61 144 0.0 1.0 0.00 0.00 0.00 81 4237.7
20260506111627 62 128 0.0 1.0 0.00 0.00 0.00 79 4237.6
20260506111125 62 108 2.0 2.0 0.00 0.00 0.00 78 4237.6
20260506110622 62 116 0.0 1.0 0.00 0.00 0.00 78 4237.6
20260506110119 62 137 0.0 1.0 0.00 0.00 0.00 78 4237.4
20260506105616 62 101 0.0 1.0 0.00 0.00 0.00 77 4237.4
20260506105113 62 129 0.0 0.0 0.00 0.00 0.00 77 4237.3
20260506104611 62 101 0.0 1.0 0.00 0.00 0.00 77 4237.4
20260506104108 62 101 1.0 1.0 0.00 0.00 0.00 77 4237.1
20260506103605 63 96 1.0 1.0 0.00 0.00 0.00 77 4237.0
20260506103102 62 120 0.0 0.0 0.00 0.00 0.00 77 4237.0
20260506102600 62 127 0.0 0.0 0.00 0.00 0.00 77 4237.0
20260506102057 62 138 0.0 1.0 0.00 0.00 0.00 77 4237.3
20260506101554 62 56 0.0 1.0 0.00 0.00 0.00 78 4237.1
20260506101051 62 102 0.0 1.0 0.00 0.00 0.00 77 4237.2
20260506100549 62 103 1.0 1.0 0.00 0.00 0.00 77 4237.0
20260506100047 63 71 1.0 2.0 0.00 0.00 0.00 77 4237.0
20260506095545 63 111 1.0 1.0 0.00 0.00 0.00 77 4237.1
20260506095041 63 113 0.0 1.0 0.00 0.00 0.00 77 4236.7
20260506094539 63 107 0.0 0.0 0.00 0.00 0.00 77 4236.5
20260506094037 63 141 0.0 0.0 0.00 0.00 0.00 76 4236.7
20260506093535 64 95 2.0 2.0 0.00 0.00 0.00 75 4236.7
20260506093032 64 209 1.0 1.0 0.00 0.00 0.00 75 4236.6
20260506092530 64 131 0.0 0.0 0.00 0.00 0.00 75 4236.7
20260506092026 64 128 1.0 1.0 0.00 0.00 0.00 75 4236.5
20260506091525 64 117 0.0 1.0 0.00 0.00 0.00 74 4236.6
20260506091022 64 127 1.0 1.0 0.00 0.00 0.00 74 4236.6
20260506090519 64 72 1.0 1.0 0.00 0.00 0.00 74 4236.8
20260506090015 65 121 0.0 0.0 0.00 0.00 0.00 73 4236.7
20260506085513 65 118 1.0 1.0 0.00 0.00 0.00 73 4236.3
20260506085009 65 75 1.0 3.0 0.00 0.00 0.00 73 4236.6
20260506084506 65 105 2.0 2.0 0.00 0.00 0.00 73 4236.5
20260506084002 65 120 2.0 2.0 0.00 0.00 0.00 73 4236.7
20260506083500 65 150 1.0 1.0 0.00 0.00 0.00 73 4236.4
20260506082956 66 246 2.0 2.0 0.00 0.00 0.00 73 4236.1
20260506082454 66 89 1.0 2.0 0.00 0.00 0.00 73 4236.2
20260506081949 66 96 2.0 2.0 0.00 0.00 0.00 73 4236.2
20260506081448 66 121 1.0 1.0 0.00 0.00 0.00 73 4236.3
20260506080945 67 130 1.0 2.0 0.00 0.00 0.00 73 4236.1
20260506080442 67 120 1.0 1.0 0.00 0.00 0.00 74 4236.3
20260506073426 70 64 1.0 2.0 0.00 0.00 0.00 74 4236.0
20260506072923 70 128 1.0 1.0 0.00 0.00 0.00 74 4236.0
20260506072420 71 84 3.0 3.0 0.00 0.00 0.00 74 4235.7
20260506071918 71 137 1.0 1.0 0.00 0.00 0.00 74 4235.5
20260506071416 71 105 1.0 1.0 0.00 0.00 0.00 74 4235.5
20260506070912 72 105 2.0 2.0 0.00 0.00 0.00 74 4235.3
20260506070409 73 92 0.0 0.0 0.00 0.00 0.00 74 4235.7
20260506062346 78 152 0.0 0.0 0.00 0.00 0.00 79 4235.2
20260506061842 78 174 1.0 1.0 0.00 0.00 0.00 79 4235.2
20260506061339 78 160 0.0 0.0 0.00 0.00 0.00 79 4235.2
20260506060837 78 150 1.0 1.0 0.00 0.00 0.00 79 4235.2
20260506060335 78 152 1.0 1.0 0.00 0.00 0.00 79 4235.4
20260506051307 77 159 0.0 1.0 0.00 0.00 0.00 80 4236.0
20260506050804 78 152 0.0 0.0 0.00 0.00 0.00 80 4235.7
20260506050302 78 147 0.0 1.0 0.00 0.00 0.00 79 4235.5
20260506044752 78 170 1.0 1.0 0.00 0.00 0.00 78 4235.1
20260506044249 78 170 1.0 1.0 0.00 0.00 0.00 78 4235.0
20260506043747 78 150 0.0 0.0 0.00 0.00 0.00 78 4235.1
20260506043244 78 146 0.0 0.0 0.00 0.00 0.00 78 4235.2
20260506042743 78 156 1.0 1.0 0.00 0.00 0.00 78 4235.0
20260506042241 78 146 0.0 0.0 0.00 0.00 0.00 78 4235.2
20260506041739 78 152 0.0 0.0 0.00 0.00 0.00 78 4235.0
20260506041236 78 158 0.0 1.0 0.00 0.00 0.00 78 4234.9
20260506040733 78 142 0.0 0.0 0.00 0.00 0.00 78 4234.8
20260506040230 78 153 0.0 0.0 0.00 0.00 0.00 77 4234.7
20260506035727 78 156 1.0 1.0 0.00 0.00 0.00 77 4234.6
20260506035224 78 145 1.0 1.0 0.00 0.00 0.00 77 4234.7
20260506034721 78 143 1.0 1.0 0.00 0.00 0.00 77 4234.5
20260506034218 78 180 1.0 1.0 0.00 0.00 0.00 77 4234.4
20260506033715 78 175 1.0 1.0 0.00 0.00 0.00 77 4234.2
20260506033212 78 148 0.0 1.0 0.00 0.00 0.00 77 4234.1
20260506032709 78 137 0.0 0.0 0.00 0.00 0.00 77 4234.0
20260506032206 78 147 0.0 0.0 0.00 0.00 0.00 77 4233.7
20260506031702 78 150 0.0 0.0 0.00 0.00 0.00 77 4233.7
20260506031200 78 172 0.0 0.0 0.00 0.00 0.00 77 4233.6
20260506030658 78 148 0.0 0.0 0.00 0.00 0.00 77 4233.6
20260506030155 78 151 0.0 0.0 0.00 0.00 0.00 77 4233.6
20260506025652 78 170 0.0 0.0 0.00 0.00 0.00 77 4233.8
20260506025148 78 134 0.0 0.0 0.00 0.00 0.00 77 4233.5
20260506024646 79 145 1.0 1.0 0.00 0.00 0.00 76 4233.6
20260506024142 79 148 0.0 1.0 0.00 0.00 0.00 76 4233.3
20260506023638 79 162 1.0 1.0 0.00 0.00 0.00 76 4233.4
20260506023135 79 156 0.0 0.0 0.00 0.00 0.00 76 4233.3
20260506022633 79 150 0.0 0.0 0.00 0.00 0.00 76 4233.3
20260506022130 79 167 1.0 1.0 0.00 0.00 0.00 76 4233.5
20260506021627 79 169 0.0 1.0 0.00 0.00 0.00 76 4233.0
20260506021125 79 158 1.0 1.0 0.00 0.00 0.00 76 4232.9
20260506020622 79 159 1.0 1.0 0.00 0.00 0.00 76 4233.2
20260506020119 78 137 0.0 1.0 0.00 0.00 0.00 77 4233.2
20260506015617 78 159 1.0 1.0 0.00 0.00 0.00 77 4233.4
20260506015114 79 178 1.0 1.0 0.00 0.00 0.00 77 4233.4
20260506014611 78 157 0.0 1.0 0.00 0.00 0.00 77 4233.6
20260506014106 79 141 0.0 0.0 0.00 0.00 0.00 76 4233.7
20260506013605 79 140 0.0 0.0 0.00 0.00 0.00 75 4233.8
20260506013102 80 141 0.0 0.0 0.00 0.00 0.00 74 4233.4
20260506012558 80 134 0.0 0.0 0.00 0.00 0.00 73 4233.3
20260506012054 80 148 0.0 0.0 0.00 0.00 0.00 73 4233.3
20260506011552 81 152 0.0 0.0 0.00 0.00 0.00 72 4233.0
20260506011048 81 145 0.0 1.0 0.00 0.00 0.00 71 4233.0
20260506010548 81 144 0.0 0.0 0.00 0.00 0.00 71 4233.1
20260506010044 81 129 0.0 1.0 0.00 0.00 0.00 70 4233.1
20260506005541 81 169 1.0 1.0 0.00 0.00 0.00 70 4233.0
20260506005037 82 160 1.0 1.0 0.00 0.00 0.00 70 4233.1
20260506004535 82 170 1.0 1.0 0.00 0.00 0.00 69 4232.9
20260506004031 82 167 0.0 1.0 0.00 0.00 0.00 68 4233.0
20260506003528 82 144 0.0 0.0 0.00 0.00 0.00 68 4232.7
20260506003023 83 189 1.0 1.0 0.00 0.00 0.00 67 4232.8
20260506002520 82 148 0.0 1.0 0.00 0.00 0.00 67 4232.6
20260506002015 82 161 1.0 1.0 0.00 0.00 0.00 68 4232.7
20260506001512 83 174 0.0 1.0 0.00 0.00 0.00 68 4232.9
20260506001010 83 154 1.0 1.0 0.00 0.00 0.00 67 4232.6
20260506000507 83 127 0.0 1.0 0.00 0.00 0.00 66 4232.7
20260506000004 83 173 0.0 1.0 0.00 0.00 0.00 66 4232.6
20260505235502 83 152 0.0 0.0 0.00 0.00 0.00 66 4232.6
20260505234958 84 205 1.0 1.0 0.00 0.00 0.00 65 4232.8
20260505234456 84 64 1.0 1.0 0.00 0.00 0.00 65 4232.6
20260505233952 84 171 1.0 1.0 0.00 0.00 0.00 65 4232.3
20260505233450 84 166 1.0 1.0 0.00 0.00 0.00 65 4232.3
20260505232947 84 150 0.0 0.0 0.00 0.00 0.00 64 4232.4
20260505232445 84 177 2.0 2.0 0.00 0.00 0.00 64 4232.4
20260505231942 84 156 1.0 1.0 0.00 0.00 0.00 64 4232.6
20260505231439 84 216 1.0 2.0 0.00 0.00 0.00 64 4232.3
20260505230937 84 178 1.0 1.0 0.00 0.00 0.00 64 4232.3
20260505230435 84 150 0.0 1.0 0.00 0.00 0.00 64 4232.5
20260505225931 84 146 0.0 1.0 0.00 0.00 0.00 63 4232.1
20260505225428 84 246 2.0 3.0 0.00 0.00 0.00 62 4232.2
20260505224924 84 149 2.0 2.0 0.00 0.00 0.00 63 4232.3
20260505224421 84 199 2.0 3.0 0.00 0.00 0.00 63 4232.2
20260505223918 84 152 1.0 1.0 0.00 0.00 0.00 62 4232.2
20260505223415 85 201 1.0 2.0 0.00 0.00 0.00 60 4232.2
20260505222911 86 142 1.0 1.0 0.00 0.00 0.00 61 4232.2
20260505222408 86 190 1.0 1.0 0.00 0.00 0.00 60 4232.3
20260505221904 86 167 1.0 2.0 0.00 0.00 0.00 60 4232.1
20260505221401 86 209 1.0 1.0 0.00 0.00 0.00 58 4232.3
20260505220858 87 187 2.0 2.0 0.00 0.00 0.00 57 4232.1
20260505220355 88 70 1.0 2.0 0.00 0.00 0.00 57 4231.9
20260505215853 88 211 3.0 5.0 0.00 0.00 0.00 57 4231.7
20260505215351 88 135 1.0 1.0 0.00 0.00 0.00 59 4232.1
20260505214848 88 139 1.0 1.0 0.00 0.00 0.00 56 4232.1
20260505214346 89 128 3.0 3.0 0.00 0.00 0.00 54 4232.2
20260505213843 87 147 0.0 1.0 0.00 0.00 0.00 57 4232.4
20260505213341 86 255 2.0 2.0 0.00 0.00 0.00 59 4232.1
20260505212836 87 176 1.0 2.0 0.00 0.00 0.00 59 4232.0
20260505212334 88 226 2.0 2.0 0.00 0.00 0.00 57 4232.3
20260505211830 89 226 3.0 3.0 0.00 0.00 0.00 56 4232.2
20260505211328 91 155 1.0 1.0 0.00 0.00 0.00 53 4232.2
20260505210824 90 226 3.0 5.0 0.00 0.00 0.00 53 4232.3
20260505210321 89 165 2.0 3.0 0.00 0.00 0.00 55 4232.4
20260505205818 90 192 2.0 2.0 0.00 0.00 0.00 55 4232.4
20260505205316 90 141 3.0 3.0 0.00 0.00 0.00 55 4232.7
20260505204812 88 175 1.0 2.0 0.00 0.00 0.00 56 4232.8
20260505204311 88 150 1.0 1.0 0.00 0.00 0.00 58 4232.7
20260505203807 86 213 3.0 3.0 0.00 0.00 0.00 58 4232.6
20260505203304 87 3 3.0 5.0 0.00 0.00 0.00 58 4232.6
20260505202800 87 223 4.0 6.0 0.00 0.00 0.00 58 4232.5
20260505202256 86 166 1.0 1.0 0.00 0.00 0.00 60 4232.4
20260505201753 85 206 3.0 3.0 0.00 0.00 0.00 60 4232.7
20260505201251 86 207 2.0 3.0 0.00 0.00 0.00 60 4232.6
20260505200749 86 154 0.0 1.0 0.00 0.00 0.00 60 4232.7
20260505200246 86 116 3.0 5.0 0.00 0.00 0.00 60 4232.7
20260505195741 85 176 1.0 1.0 0.00 0.00 0.00 62 4233.2
20260505195239 85 178 2.0 2.0 0.00 0.00 0.00 62 4233.0
20260505194736 84 230 3.0 5.0 0.00 0.00 0.00 63 4233.2
20260505194232 85 179 1.0 2.0 0.00 0.00 0.00 63 4233.2
20260505193728 85 96 3.0 3.0 0.00 0.00 0.00 62 4233.1
20260505193226 84 185 2.0 3.0 0.00 0.00 0.00 63 4233.3
20260505192724 85 216 2.0 3.0 0.00 0.00 0.00 62 4233.0
20260505192221 85 176 1.0 1.0 0.00 0.00 0.00 62 4233.0
20260505191719 85 262 3.0 3.0 0.00 0.00 0.00 62 4233.3
20260505191218 85 179 3.0 3.0 0.00 0.00 0.00 63 4233.2
20260505190714 85 120 1.0 1.0 0.00 0.00 0.00 61 4233.0
20260505190213 84 245 2.0 2.0 0.00 0.00 0.00 62 4233.1
20260505185710 85 150 2.0 2.0 0.00 0.00 0.00 61 4233.3
20260505185207 84 208 2.0 2.0 0.00 0.00 0.00 62 4233.1
20260505184703 84 249 3.0 3.0 0.00 0.00 0.00 61 4233.3
20260505184200 85 175 1.0 1.0 0.00 0.00 0.00 61 4233.2
20260505183657 84 166 3.0 5.0 0.00 0.00 0.00 62 4233.5
20260505183155 84 186 3.0 5.0 0.00 0.00 0.00 62 4233.7
20260505182650 84 177 2.0 2.0 0.00 0.00 0.00 62 4233.6
20260505182148 83 240 3.0 5.0 0.00 0.00 0.00 63 4233.4
20260505181644 84 206 1.0 1.0 0.00 0.00 0.00 64 4233.7
20260505181142 84 166 1.0 1.0 0.00 0.00 0.00 61 4233.7
20260505180638 84 206 1.0 1.0 0.00 0.00 0.00 63 4233.8
20260505180135 83 126 2.0 3.0 0.00 0.00 0.00 63 4233.9
20260505175631 84 218 3.0 3.0 0.00 0.00 0.00 63 4233.9
20260505175127 83 196 2.0 2.0 0.00 0.00 0.00 64 4233.8
20260505174624 82 213 3.0 5.0 0.00 0.00 0.00 66 4233.8
20260505174120 82 230 3.0 3.0 0.00 0.00 0.00 64 4234.0
20260505173617 81 203 2.0 3.0 0.00 0.00 0.00 66 4233.9
20260505173114 81 125 3.0 3.0 0.00 0.00 0.00 66 4233.9
20260505172612 81 188 4.0 5.0 0.00 0.00 0.00 66 4233.8
20260505172109 80 196 2.0 2.0 0.00 0.00 0.00 67 4233.9
20260505171608 80 237 4.0 5.0 0.00 0.00 0.00 69 4233.9
20260505171106 80 248 3.0 5.0 0.00 0.00 0.00 68 4233.8
20260505170603 80 179 2.0 2.0 0.00 0.00 0.00 68 4233.9
20260505170059 80 135 3.0 5.0 0.00 0.00 0.00 68 4234.0
20260505165554 79 202 3.0 5.0 0.00 0.00 0.00 69 4233.8
20260505165050 79 132 2.0 3.0 0.00 0.00 0.00 69 4233.8
20260505164546 78 248 2.0 2.0 0.00 0.00 0.00 70 4233.6
20260505164044 78 216 2.0 2.0 0.00 0.00 0.00 71 4233.8
20260505163543 77 261 1.0 2.0 0.00 0.00 0.00 72 4233.8
20260505163039 77 192 2.0 3.0 0.00 0.00 0.00 72 4233.9
20260505162538 77 192 1.0 1.0 0.00 0.00 0.00 72 4233.9
20260505162035 77 183 2.0 2.0 0.00 0.00 0.00 72 4234.1
20260505161532 77 219 2.0 3.0 0.00 0.00 0.00 72 4234.1
20260505161029 77 138 3.0 5.0 0.00 0.00 0.00 73 4234.1
20260505160527 76 159 1.0 1.0 0.00 0.00 0.00 72 4233.9
20260505153003 76 76 1.0 2.0 0.00 0.00 0.00 74 4234.1
20260505152500 76 25 3.0 3.0 0.00 0.00 0.00 74 4233.8
20260505151955 76 114 4.0 7.0 0.00 0.00 0.00 74 4233.8
20260505151451 75 207 2.0 2.0 0.00 0.00 0.00 75 4234.0
20260505150949 75 211 2.0 3.0 0.00 0.00 0.00 75 4234.0
20260505150445 74 187 2.0 3.0 0.00 0.00 0.00 76 4234.1
20260505140415 73 151 1.0 2.0 0.00 0.00 0.00 79 4234.0